Погода в Клишах

Франция     48°54′02″N   2°18′27″E
темп.,
°C
ветер,
м/с
пор.,
м/с
влажн.,
%
обл.,
%
осадки,
мм/ч
давл.,
гПа
погр.,
м
15 июня, вт
вт1523:00+21с25734 0.0 1020177
02:00+19ссз237560 0.0 1020122
05:00+17ссз1272100 0.0 101983
08:00+18ссз2261100 0.0 1020186
11:00+23ссз224991 0.0 1020632
14:00+27ссз324168 0.0 10191398
17:00+28ссз3239100 0.0 10181648
20:00+26с334997 0.0 1017752
16 июня, ср
ср1623:00+22св226811 0.0 101758
02:00+20св117750 0.0 101631
05:00+19в11840 0.0 101513
08:00+21юв23750 0.0 1014237
11:00+27ююв23530 0.0 10131117
14:00+31ю23369 0.0 10112355
17:00+32ююв223112 0.0 10102530
20:00+29вюв44425 0.0 10081369
17 июня, чт
чт1723:00+25вюв38675 0.3 1009281
02:00+21ююв259350 3.1 1009191
05:00+20юз31089100 1.2 1009487
08:00+20ююз358983 1.5 1010479
11:00+24юз466436 0.3 10111161
14:00+28ююз5648100 0.3 10111788
17:00+28зсз334799 0.0 10091499
20:00+25с4667100 0.0 1009538
18 июня, пт
пт1823:00+20ссз3596100 12.8 1012357
02:00+18ссв379596 13.0 1011352
05:00+18всв2692100 0.0 1010347
08:00+19юв389492 2.7 1010633
11:00+21ю6977100 0.1 10111076
14:00+22ююз6106879 0.3 10111291
17:00+24ююз8135640 0.3 10101778
20:00+19юз7127088 0.3 10121059
19 июня, сб
сб1923:00+16зюз51076100 0.0 1014647
02:00+14з39820 0.0 1014404
05:00+13зюз14850 0.0 1016245
08:00+15с118153 0.0 1014249
11:00+21в116182 0.0 1016620
14:00+26св224679 0.0 10141103
17:00+27в4548100 0.0 10121725
20:00+25св3666100 0.1 1011489